Location: B�hl
(48.6968°N, 8.1352°E)
Time: 21:33:28
(UTC+00:00)

Cosmos 1238 Rocket - Pass Details

Date: 08 March 2021
Orbit: 375 x 1022 km, 83.0° (Epoch: 14 April)

Event Time Altitude Azimuth Distance (km) Brightness Sun altitude
Rises 18:10:57 0° 156° (SSE) 2,862 6.2 -8.9°
Reaches altitude 10° 18:13:42 10° 142° (SE) 1,840 5.1 -9.3°
Maximum altitude 18:16:45 22° 91° (E) 1,156 3.8 -9.8°
Drops below altitude 10° 18:19:29 10° 40° (NE) 1,616 4.9 -10.3°
Sets 18:21:43 0° 24° (NNE) 2,415 5.9 -10.6°
